RA67502 UNNT-UNNT

Flight info

Callsign RA67502
Flight time 0h 43m
Altitude 3000
Route 5453N08249E/NUMNI 5447N08306E/BERDSK 5441N08238E/BOROVOE 5453N08249E/NUMNI
Aircraft C172/L-SDGY/S

Departure

Time 2026-05-01 12:59
Airport Novosibirsk Tolmachevo Airport (UNNT)

Arrival

Time 2026-05-01 13:43
Airport Novosibirsk Tolmachevo Airport (UNNT)
Time Latitude Longitude Altitude Speed Heading
2026-05-01 12:56 55.01127 82.67117 365 ft 0 kts 170°
2026-05-01 12:56 55.01115 82.67122 365 ft 4 kts 169°
2026-05-01 12:56 55.01069 82.67088 365 ft 10 kts 237°
2026-05-01 12:56 55.01075 82.66923 365 ft 16 kts 283°
2026-05-01 12:57 55.01089 82.66747 365 ft 14 kts 269°
2026-05-01 12:57 55.01226 82.66628 365 ft 22 kts 352°
2026-05-01 12:57 55.01302 82.66609 365 ft 1 kts 351°
2026-05-01 12:58 55.01331 82.66602 365 ft 6 kts 351°
2026-05-01 12:58 55.01392 82.66595 365 ft 11 kts 71°
2026-05-01 12:58 55.01424 82.67027 365 ft 59 kts 82°
2026-05-01 12:59 55.01630 82.68562 683 ft 68 kts 78°
2026-05-01 12:59 55.01761 82.69363 853 ft 69 kts 78°
2026-05-01 12:59 55.02052 82.71139 1154 ft 79 kts 90°
2026-05-01 13:00 55.01400 82.72533 1491 ft 77 kts 150°
2026-05-01 13:00 55.00923 82.72946 1677 ft 76 kts 150°
2026-05-01 13:01 54.99973 82.73749 2024 ft 77 kts 151°
2026-05-01 13:01 54.99486 82.74161 2193 ft 77 kts 151°
2026-05-01 13:01 54.98497 82.74985 2527 ft 78 kts 152°
2026-05-01 13:02 54.97998 82.75391 2697 ft 78 kts 152°
2026-05-01 13:07 54.87515 82.86256 3000 ft 86 kts 125°
2026-05-01 13:07 54.87175 82.87112 3001 ft 86 kts 128°
2026-05-01 13:07 54.86824 82.87958 2998 ft 86 kts 128°
2026-05-01 13:08 54.86469 82.88804 3002 ft 86 kts 129°
2026-05-01 13:08 54.86113 82.89647 3000 ft 86 kts 128°
2026-05-01 13:08 54.85752 82.90493 2994 ft 87 kts 128°
2026-05-01 13:08 54.85391 82.91338 2998 ft 86 kts 129°
2026-05-01 13:09 54.85032 82.92176 2997 ft 86 kts 128°
2026-05-01 13:09 54.84672 82.93016 2997 ft 86 kts 129°
2026-05-01 13:09 54.84313 82.93859 2998 ft 86 kts 128°
2026-05-01 13:09 54.83958 82.94694 2998 ft 86 kts 128°
2026-05-01 13:10 54.83599 82.95534 3000 ft 86 kts 128°
2026-05-01 13:10 54.83244 82.96375 2999 ft 86 kts 128°
2026-05-01 13:10 54.82887 82.97225 2999 ft 86 kts 128°
2026-05-01 13:10 54.82533 82.98071 3000 ft 86 kts 128°
2026-05-01 13:11 54.82176 82.98926 2997 ft 86 kts 128°
2026-05-01 13:11 54.81836 82.99795 3000 ft 86 kts 126°
2026-05-01 13:11 54.81513 83.00665 3001 ft 86 kts 126°
2026-05-01 13:11 54.81192 83.01537 3003 ft 86 kts 125°
2026-05-01 13:12 54.80868 83.02415 3001 ft 86 kts 125°
2026-05-01 13:12 54.80541 83.03296 2999 ft 86 kts 125°
2026-05-01 13:12 54.80063 83.04573 2997 ft 86 kts 125°
2026-05-01 13:12 54.79731 83.05448 2997 ft 86 kts 125°
2026-05-01 13:13 54.79401 83.06320 2999 ft 86 kts 125°
2026-05-01 13:13 54.79068 83.07196 2998 ft 86 kts 125°
2026-05-01 13:13 54.78626 83.07852 2996 ft 87 kts 161°
2026-05-01 13:13 54.78019 83.07642 2997 ft 96 kts 207°
2026-05-01 13:14 54.77634 83.06626 2999 ft 106 kts 242°
2026-05-01 13:14 54.77418 83.05376 2997 ft 107 kts 245°
2026-05-01 13:14 54.77223 83.04131 2997 ft 108 kts 246°
2026-05-01 13:14 54.77031 83.02880 2996 ft 107 kts 246°
2026-05-01 13:15 54.76839 83.01623 2997 ft 107 kts 246°
2026-05-01 13:15 54.76647 83.00381 2997 ft 107 kts 246°
2026-05-01 13:15 54.76454 82.99136 2998 ft 107 kts 246°
2026-05-01 13:15 54.76257 82.97882 2995 ft 107 kts 246°
2026-05-01 13:16 54.76059 82.96639 2993 ft 106 kts 246°
2026-05-01 13:16 54.75879 82.95381 2996 ft 108 kts 255°
2026-05-01 13:16 54.75840 82.94061 2998 ft 110 kts 262°
2026-05-01 13:17 54.76242 82.90126 2997 ft 115 kts 288°
2026-05-01 13:17 54.76427 82.88808 2998 ft 109 kts 257°
2026-05-01 13:18 54.76040 82.86335 2996 ft 106 kts 243°
2026-05-01 13:18 54.75819 82.85115 2998 ft 106 kts 244°
2026-05-01 13:18 54.75595 82.83901 2997 ft 105 kts 243°
2026-05-01 13:18 54.75246 82.82827 2998 ft 100 kts 227°
2026-05-01 13:19 54.74845 82.81838 2997 ft 100 kts 225°
2026-05-01 13:19 54.74443 82.80852 2999 ft 100 kts 225°
2026-05-01 13:19 54.73624 82.78867 2998 ft 101 kts 226°
2026-05-01 13:20 54.73216 82.77876 2998 ft 101 kts 225°
2026-05-01 13:20 54.72802 82.76871 2998 ft 101 kts 225°
2026-05-01 13:20 54.72399 82.75879 2998 ft 102 kts 225°
2026-05-01 13:21 54.71585 82.73879 3001 ft 101 kts 225°
2026-05-01 13:21 54.71183 82.72884 3005 ft 101 kts 225°
2026-05-01 13:21 54.70783 82.71888 3006 ft 101 kts 225°
2026-05-01 13:21 54.70385 82.70892 3005 ft 101 kts 225°
2026-05-01 13:22 54.70004 82.69866 3002 ft 105 kts 238°
2026-05-01 13:22 54.69840 82.68605 3004 ft 108 kts 251°
2026-05-01 13:22 54.69720 82.67306 3002 ft 109 kts 252°
2026-05-01 13:22 54.69608 82.66026 3002 ft 109 kts 252°
2026-05-01 13:23 54.69495 82.64726 3001 ft 109 kts 252°
2026-05-01 13:23 54.69381 82.63421 3000 ft 109 kts 253°
2026-05-01 13:23 54.69264 82.62117 3000 ft 109 kts 253°
2026-05-01 13:23 54.69149 82.60823 3000 ft 109 kts 255°
2026-05-01 13:24 54.69331 82.59517 3001 ft 117 kts 301°
2026-05-01 13:24 54.69981 82.58675 3003 ft 117 kts 347°
2026-05-01 13:24 54.70753 82.58707 3004 ft 110 kts 25°
2026-05-01 13:25 54.72075 82.59868 2999 ft 105 kts 43°
2026-05-01 13:25 54.72683 82.60577 2998 ft 105 kts 44°
2026-05-01 13:25 54.73291 82.61289 2996 ft 105 kts 43°
2026-05-01 13:25 54.73893 82.61991 2993 ft 106 kts 44°
2026-05-01 13:26 54.74505 82.62704 2993 ft 106 kts 44°
2026-05-01 13:26 54.75121 82.63422 2991 ft 106 kts 44°
2026-05-01 13:26 54.75738 82.64138 2991 ft 106 kts 44°
2026-05-01 13:26 54.76344 82.64847 2990 ft 106 kts 44°
2026-05-01 13:27 54.76958 82.65566 2989 ft 106 kts 43°
2026-05-01 13:27 54.77573 82.66289 2991 ft 106 kts 43°
2026-05-01 13:27 54.78790 82.67748 2993 ft 106 kts 45°
2026-05-01 13:28 54.79994 82.69224 2992 ft 105 kts 45°
2026-05-01 13:28 54.80586 82.69951 2992 ft 105 kts 44°
2026-05-01 13:29 54.81777 82.71415 2992 ft 105 kts 44°
2026-05-01 13:29 54.82970 82.72886 2991 ft 105 kts 45°
2026-05-01 13:30 54.85393 82.75824 2989 ft 105 kts 44°
2026-05-01 13:31 54.86592 82.77274 2992 ft 105 kts 44°
2026-05-01 13:31 54.88378 82.79479 2992 ft 105 kts 44°
2026-05-01 13:32 54.89569 82.80964 2992 ft 105 kts 42°
2026-05-01 13:33 54.91459 82.79495 2990 ft 115 kts 294°
2026-05-01 13:33 54.92186 82.77007 2993 ft 115 kts 292°
2026-05-01 13:34 54.92911 82.74507 2993 ft 116 kts 292°
2026-05-01 13:34 54.93630 82.71968 2994 ft 117 kts 291°
2026-05-01 13:35 54.94347 82.69443 2990 ft 116 kts 291°
2026-05-01 13:35 54.94706 82.68179 2990 ft 116 kts 291°
2026-05-01 13:35 54.95430 82.65643 2989 ft 116 kts 292°
2026-05-01 13:36 54.95788 82.64388 2989 ft 116 kts 292°
2026-05-01 13:36 54.96152 82.63107 2990 ft 117 kts 292°
2026-05-01 13:36 54.96832 82.60712 2947 ft 94 kts 292°
2026-05-01 13:37 54.97194 82.59822 2819 ft 91 kts 324°
2026-05-01 13:37 54.97742 82.59279 2665 ft 90 kts 336°
2026-05-01 13:37 54.98299 82.58795 2510 ft 90 kts 337°
2026-05-01 13:37 54.98867 82.58305 2360 ft 91 kts 337°
2026-05-01 13:38 54.99956 82.58405 2082 ft 72 kts 61°
2026-05-01 13:38 55.00120 82.59111 1958 ft 59 kts 107°
2026-05-01 13:38 54.99916 82.59638 1854 ft 53 kts 150°
2026-05-01 13:39 54.99556 82.59849 1750 ft 55 kts 161°
2026-05-01 13:39 54.99180 82.59990 1683 ft 56 kts 162°
2026-05-01 13:39 54.98782 82.59931 1622 ft 63 kts 199°
2026-05-01 13:39 54.98504 82.59255 1568 ft 76 kts 244°
2026-05-01 13:40 54.98559 82.58293 1520 ft 86 kts 290°
2026-05-01 13:40 54.98974 82.57512 1502 ft 94 kts 330°
2026-05-01 13:40 54.99576 82.56956 1507 ft 98 kts 335°
2026-05-01 13:40 55.00230 82.56497 1500 ft 97 kts 342°
2026-05-01 13:41 55.00854 82.56300 1509 ft 87 kts 27°
2026-05-01 13:41 55.01293 82.56845 1432 ft 69 kts 93°
2026-05-01 13:41 55.01086 82.57604 1235 ft 72 kts 129°
2026-05-01 13:41 55.00837 82.58314 1092 ft 65 kts 113°
2026-05-01 13:42 55.00766 82.59069 942 ft 63 kts 98°
2026-05-01 13:42 55.00797 82.59840 776 ft 69 kts 92°
2026-05-01 13:42 55.00858 82.60692 609 ft 70 kts 88°
2026-05-01 13:42 55.00926 82.61513 496 ft 70 kts 85°
2026-05-01 13:43 55.01001 82.62369 390 ft 67 kts 86°
2026-05-01 13:43 55.01064 82.63073 366 ft 48 kts 83°
2026-05-01 13:43 55.01111 82.63558 365 ft 33 kts 81°
2026-05-01 13:43 55.01138 82.63900 365 ft 23 kts 94°
2026-05-01 13:44 55.01043 82.64003 365 ft 13 kts 169°
2026-05-01 13:44 55.00990 82.64078 365 ft 8 kts 110°
2026-05-01 13:44 55.00979 82.64156 365 ft 4 kts 106°
2026-05-01 13:44 55.00966 82.64262 365 ft 20 kts 102°
2026-05-01 13:45 55.00949 82.64505 365 ft 10 kts 40°
2026-05-01 13:45 55.01005 82.64538 365 ft 5 kts 275°
2026-05-01 13:45 55.00979 82.64523 365 ft 1 kts 193°